Wind_Speed
15 15 15 15 16 15 15 16 16 15 14 15 14 13 12 11 11 11 12 11 12 12 11 11 10 10 10 9 9 8 8 8 9 8 7 7 6 6 6 6 6 6 6 6 6 6 6 6 5
15 14 14 15 16 15 16 16 14 13 13 14 13 12 11 10 10 11 11 11 11 11 10 10 10 9 9 9 8 8 8 8 8 8 7 6 6 6 6 6 6 6 6 5 5 5 5 6 6
14 14 14 14 15 16 16 15 14 13 13 13 12 11 10 10 11 11 10 10 11 10 10 9 9 9 9 9 8 8 8 8 7 7 7 6 6 6 6 6 5 5 5 5 5 5 6 6 5
11 13 14 14 15 16 16 15 14 13 12 12 11 10 9 10 10 10 10 10 10 10 9 9 9 8 8 8 8 8 8 8 7 7 7 6 6 6 5 5 5 4 5 5 5 5 5 5 5
10 12 14 14 14 16 16 15 14 13 11 11 11 10 9 9 10 9 10 9 9 9 9 8 8 7 7 7 8 8 7 8 7 7 7 6 5 4 4 4 4 4 4 4 4 5 4 4 5
9 11 13 13 14 14 14 14 13 12 11 11 10 9 9 9 9 9 9 9 9 9 8 8 7 7 7 7 8 7 7 7 7 7 6 5 4 4 4 4 3 3 4 4 4 4 4 4 4
9 10 11 12 13 13 13 12 12 12 11 11 10 9 9 9 9 8 8 9 8 8 8 8 8 7 7 7 7 7 7 7 6 6 6 5 4 4 3 3 3 3 3 4 4 4 4 4 4
8 9 9 10 11 12 12 12 11 11 10 10 9 8 8 8 8 8 8 8 8 8 8 8 8 7 7 7 6 7 7 6 6 6 6 5 5 5 3 3 3 3 3 3 3 3 4 3 3
7 8 9 9 10 11 12 11 11 10 10 9 9 8 8 8 8 8 7 7 7 7 7 7 7 7 7 6 6 7 7 6 6 6 5 5 5 5 4 4 3 2 2 3 3 3 3 2 2
6 7 7 7 8 9 10 10 10 10 10 9 8 8 8 8 8 7 7 7 7 7 7 7 7 7 7 6 7 8 8 8 7 6 5 4 4 3 2 2 2 2 2 2 2 2 2 1 1
4 6 7 9 9 9 9 9 10 10 10 10 9 8 8 7 7 7 7 7 7 7 7 7 7 7 7 7 7 7 7 7 7 5 5 4 3 3 3 2 2 2 2 2 2 1 1 1 1
5 6 7 8 10 9 8 9 10 10 10 10 9 8 7 7 7 8 8 8 8 7 7 7 8 8 8 8 8 8 8 7 7 6 5 5 4 4 3 3 3 2 2 2 2 1 0 0 1
4 4 6 8 9 9 9 9 9 10 10 10 9 9 8 7 7 7 7 7 7 7 8 9 8 8 9 8 8 8 8 7 7 6 6 6 5 4 4 3 2 2 2 1 1 1 0 1 1
4 3 4 6 7 8 7 8 9 9 9 10 10 9 9 8 8 8 8 8 8 8 9 9 9 8 9 9 9 9 8 8 7 6 6 6 5 4 4 4 3 3 3 3 2 1 1 1 2
6 4 2 4 5 6 6 6 7 9 9 10 10 10 9 9 8 8 8 8 8 8 9 10 10 9 9 9 9 9 8 8 7 6 6 5 5 4 4 4 4 4 4 3 2 2 1 2 2
7 5 3 3 3 4 5 5 6 7 8 9 10 10 10 9 8 8 8 8 8 8 9 10 10 10 10 10 9 8 8 8 7 7 6 5 5 4 4 3 4 4 4 3 3 3 2 2 3
8 6 5 3 2 2 3 4 5 6 7 8 9 9 10 9 8 8 9 8 8 8 9 9 9 10 10 10 9 8 8 7 7 7 7 6 6 5 5 4 4 4 4 3 3 3 3 2 2
9 7 6 3 2 1 2 3 4 5 7 7 7 8 8 8 8 8 8 8 8 8 8 9 9 10 10 10 10 9 8 7 7 7 6 6 6 5 5 4 4 4 4 3 3 3 3 2 2
10 9 7 5 3 2 3 3 4 5 6 7 7 7 7 8 8 8 8 8 8 8 8 8 8 9 9 9 9 9 8 8 7 7 7 6 6 6 5 5 5 4 3 3 3 3 3 3 3
12 11 9 7 5 4 4 4 5 5 5 5 6 7 7 7 7 7 7 7 8 8 8 8 8 8 8 8 8 8 8 7 8 7 7 7 7 7 7 6 5 4 3 3 3 3 3 4 4
14 13 11 9 7 7 7 6 5 4 5 5 6 5 6 7 7 6 6 7 7 7 7 7 7 8 8 8 8 8 8 8 7 7 8 8 8 8 7 7 7 5 4 4 4 4 4 4 4
17 14 13 11 12 10 9 7 5 4 4 5 6 6 6 6 6 6 6 6 6 6 7 7 7 7 7 8 8 8 7 7 8 8 8 8 8 8 8 7 7 6 4 4 4 5 5 4 3
18 16 14 13 13 12 11 9 6 5 5 5 6 5 5 5 5 5 5 6 6 6 7 7 6 7 7 7 8 8 7 7 8 8 8 8 8 9 8 8 7 5 4 5 5 5 4 4 4
20 19 17 17 17 16 12 12 9 7 5 5 6 6 6 5 5 5 5 6 6 6 6 7 7 7 7 7 8 8 8 8 8 8 9 9 9 9 9 9 7 6 5 5 5 5 5 5 4
22 21 21 21 20 16 13 14 11 8 6 6 6 6 6 6 6 5 5 5 6 7 7 7 7 7 7 8 8 8 8 9 9 9 10 10 9 9 9 9 8 7 6 6 4 4 5 6 6
24 23 23 22 19 17 15 14 11 9 8 9 8 8 8 8 6 5 5 5 6 7 8 8 7 7 8 8 8 9 9 9 9 9 10 10 9 9 9 8 8 8 8 7 6 6 7 6 6
24 24 23 22 20 17 15 12 11 11 11 10 9 9 10 10 9 7 6 6 6 7 7 8 8 8 8 9 9 9 10 10 10 10 11 11 10 10 9 9 9 9 9 9 9 8 7 7 7
24 23 23 22 20 19 16 14 13 12 11 11 11 10 10 10 9 8 8 8 8 8 8 8 9 9 9 10 10 10 11 11 11 11 11 12 11 10 10 9 9 9 9 8 8 7 7 7 7
24 24 24 23 21 19 17 15 13 13 11 11 11 10 10 10 9 9 9 9 9 9 9 9 10 10 10 11 11 11 12 12 12 12 12 12 12 11 11 11 10 10 9 8 7 7 8 8 8
24 25 24 24 23 21 19 17 15 14 13 12 13 13 12 11 10 10 10 10 10 9 9 10 10 11 11 12 12 12 13 14 14 14 13 13 13 13 12 12 12 12 10 9 9 9 9 9 9
Wind_Direction
75 71 63 62 61 61 64 66 64 62 60 60 62 64 69 76 78 78 79 76 74 73 70 68 67 65 63 58 56 55 56 55 55 56 57 61 66 67 70 71 73 73 80 83 94 100 104 103 101
71 66 61 65 60 59 62 64 63 63 63 62 61 62 69 75 77 79 78 74 72 70 67 64 62 63 62 59 56 53 53 54 57 55 58 64 67 66 66 69 74 77 81 86 93 97 100 102 103
72 65 59 60 59 58 61 62 59 58 60 61 62 63 69 75 79 78 76 72 68 66 64 63 60 61 63 62 58 56 54 53 54 56 57 65 70 71 69 65 70 77 79 83 90 96 99 103 104
68 65 61 56 58 58 57 58 57 55 55 57 61 63 68 75 78 77 74 72 68 64 63 60 58 61 62 61 58 55 55 55 53 57 57 63 70 73 69 65 65 75 76 80 83 89 97 105 103
61 62 60 57 58 58 53 52 52 53 54 56 59 61 66 70 72 72 74 73 69 63 58 56 56 58 59 58 54 50 51 53 52 54 54 59 66 67 65 65 65 70 68 70 74 82 91 100 107
67 62 58 55 59 56 52 51 50 50 53 56 59 59 63 67 68 66 68 70 68 62 55 53 53 58 58 56 52 46 45 44 47 46 49 59 64 61 56 68 79 76 59 62 68 73 85 96 107
70 67 59 56 59 55 53 51 50 50 51 53 56 57 58 64 65 59 58 62 62 60 58 53 54 56 54 52 48 46 41 35 40 45 47 52 59 60 64 74 89 75 68 67 72 75 84 96 102
68 66 60 55 55 52 52 50 44 47 45 45 50 55 55 60 56 54 56 62 61 60 58 55 52 51 47 45 46 43 38 33 36 40 44 53 58 58 74 89 91 89 66 59 74 77 86 94 101
75 67 61 58 52 45 46 46 42 45 41 45 49 50 51 58 58 55 52 57 57 57 52 49 45 45 41 37 41 37 34 33 37 41 42 49 59 70 83 79 85 62 50 59 73 73 82 94 96
76 61 63 61 52 44 43 42 43 42 38 40 47 49 48 57 61 61 58 55 53 52 45 39 35 33 27 27 31 32 34 38 42 41 40 38 48 58 62 73 45 38 46 51 63 81 76 77 72
83 71 66 62 52 47 42 42 41 41 38 39 45 49 47 51 57 60 61 59 57 52 45 38 34 33 33 34 32 29 32 37 41 42 45 44 38 34 30 35 31 35 36 46 69 93 65 44 51
97 76 71 63 55 50 45 44 39 42 41 42 43 45 46 52 53 51 52 52 51 48 43 48 44 41 41 39 36 31 31 31 44 46 44 35 26 22 32 23 27 40 32 41 69 92 261 328 350
121 84 70 65 58 51 41 40 37 36 41 38 38 41 46 49 49 48 50 54 52 45 45 48 48 46 44 43 35 26 25 30 33 31 29 27 27 23 12 12 16 9 359 349 12 48 346 333 330
150 115 83 70 64 57 43 43 40 37 38 37 37 35 39 46 48 47 50 52 53 51 48 48 47 43 42 41 36 29 27 28 27 27 25 19 19 19 7 357 347 346 343 340 332 324 293 313 308
173 165 148 98 75 62 44 37 42 39 37 36 36 35 37 39 42 47 50 51 50 47 46 48 44 40 40 38 34 29 23 23 24 22 23 24 22 23 11 357 344 343 342 336 322 299 288 280 280
186 183 181 143 98 60 41 30 42 41 38 34 33 31 34 38 41 43 46 45 43 43 45 45 40 40 38 32 28 25 21 19 20 17 14 12 12 12 6 354 344 341 332 330 316 293 278 272 277
194 194 186 162 124 61 40 32 40 37 37 34 32 32 30 35 40 39 39 39 39 40 39 42 40 37 31 27 25 23 20 23 22 19 13 9 4 6 4 356 346 336 322 313 315 292 269 264 267
195 199 195 197 205 351 18 24 27 27 33 30 23 25 25 29 35 35 36 38 38 37 36 39 41 37 29 26 22 21 23 25 20 16 16 13 6 1 1 359 347 334 320 304 298 288 270 262 259
194 200 209 216 231 303 343 357 359 7 18 19 11 19 28 31 30 30 32 33 32 33 33 32 35 34 26 23 21 22 23 23 18 17 18 13 9 3 358 354 348 339 330 313 300 285 268 262 266
195 200 208 212 225 257 291 311 322 332 357 4 357 6 22 32 32 29 27 28 28 28 30 29 27 26 24 22 22 20 22 21 18 16 12 10 6 2 359 359 357 338 330 322 305 288 268 266 270
204 203 210 218 223 246 261 280 300 313 339 354 357 355 5 15 23 27 23 20 22 22 20 20 17 16 16 16 15 16 19 18 13 9 8 7 5 1 359 357 350 334 323 313 297 283 275 268 265
209 209 213 224 229 239 251 272 288 299 316 336 343 354 355 359 6 16 19 18 16 12 10 10 7 5 7 8 7 11 15 13 7 8 8 4 1 357 353 348 344 338 327 316 298 285 277 270 266
212 212 216 226 232 239 247 257 270 282 289 306 318 328 344 341 345 354 4 14 11 6 4 4 2 2 3 3 4 7 7 3 357 1 3 0 357 356 354 348 346 337 326 315 300 286 282 274 266
213 214 218 226 234 241 244 250 261 268 283 299 306 319 327 327 325 333 351 3 8 5 1 360 357 359 359 357 358 359 1 358 356 357 357 353 351 351 350 347 344 336 324 315 305 288 282 273 267
212 212 216 224 231 238 240 243 249 263 270 278 287 298 317 311 315 318 331 345 353 357 358 356 357 357 351 351 351 349 350 349 348 349 347 344 341 341 342 343 340 332 325 316 304 296 287 281 275
217 218 221 228 233 238 241 243 244 257 263 262 270 280 292 294 297 308 314 319 330 338 346 350 347 348 348 344 342 341 340 337 338 339 342 340 337 336 334 333 333 327 318 310 297 298 287 280 278
216 219 223 229 233 237 240 241 245 250 250 251 259 269 278 286 302 303 300 304 312 322 330 335 334 332 333 335 336 335 331 330 331 333 337 337 334 330 329 327 329 329 321 315 305 297 290 290 284
216 219 220 225 228 234 237 241 246 245 241 243 250 259 272 283 292 294 287 289 298 308 316 320 321 322 321 322 327 331 331 330 326 327 331 329 326 323 322 321 322 324 319 317 317 305 302 299 293
216 217 222 227 231 234 238 237 239 239 242 246 250 256 266 274 283 288 287 285 291 299 308 315 318 315 314 318 322 324 325 325 325 323 321 320 320 320 320 317 316 316 316 312 308 303 297 294 295
219 219 224 229 233 234 237 236 238 243 249 254 256 259 265 266 277 289 287 284 292 297 300 305 313 315 315 316 317 318 319 320 320 317 314 312 312 311 310 310 310 310 309 303 301 298 293 293 294
Height
5913 5912 5912 5913 5912 5911 5909 5909 5908 5908 5908 5906 5906 5906 5906 5906 5906 5907 5904 5902 5902 5902 5901 5901 5900 5900 5900 5899 5899 5898 5897 5897 5896 5895 5895 5894 5894 5893 5893 5892 5891 5891 5890 5890 5890 5889 5889 5890 5890
5915 5914 5915 5914 5913 5912 5911 5910 5910 5910 5910 5908 5908 5908 5908 5907 5907 5906 5905 5904 5904 5903 5903 5903 5902 5901 5901 5901 5900 5899 5898 5898 5897 5896 5896 5895 5895 5894 5893 5893 5892 5892 5891 5891 5891 5890 5890 5890 5890
5917 5916 5917 5915 5914 5915 5914 5913 5912 5912 5911 5911 5911 5910 5910 5909 5908 5907 5907 5906 5906 5905 5905 5904 5903 5903 5902 5902 5901 5900 5900 5899 5898 5897 5897 5896 5896 5895 5894 5894 5893 5893 5892 5892 5892 5891 5891 5891 5891
5919 5919 5918 5917 5916 5916 5915 5914 5914 5914 5913 5913 5912 5912 5911 5911 5910 5909 5908 5908 5908 5907 5906 5906 5905 5904 5903 5903 5902 5902 5901 5900 5899 5898 5898 5897 5897 5896 5895 5895 5894 5894 5893 5893 5892 5892 5892 5892 5892
5921 5920 5919 5918 5917 5917 5917 5916 5916 5916 5915 5914 5914 5914 5913 5912 5911 5910 5910 5909 5909 5909 5908 5907 5906 5905 5905 5904 5904 5903 5902 5901 5900 5900 5899 5898 5897 5897 5896 5896 5895 5894 5894 5893 5893 5893 5893 5892 5892
5922 5921 5920 5919 5919 5918 5918 5918 5918 5918 5917 5916 5916 5916 5915 5914 5912 5911 5911 5911 5910 5910 5909 5908 5907 5906 5906 5905 5905 5904 5903 5902 5901 5901 5900 5899 5898 5898 5897 5896 5896 5895 5895 5894 5894 5894 5893 5893 5893
5924 5922 5922 5921 5921 5920 5920 5920 5920 5919 5918 5917 5917 5917 5916 5915 5914 5913 5912 5912 5912 5911 5910 5909 5908 5908 5907 5906 5906 5905 5904 5903 5902 5901 5901 5900 5899 5898 5898 5897 5896 5896 5895 5895 5895 5895 5894 5894 5894
5925 5924 5923 5922 5922 5922 5922 5922 5921 5920 5920 5919 5918 5917 5917 5916 5915 5914 5913 5913 5913 5912 5912 5911 5910 5909 5908 5907 5906 5906 5905 5904 5903 5902 5901 5900 5899 5898 5897 5897 5897 5896 5896 5896 5896 5895 5895 5895 5895
5926 5926 5925 5924 5924 5924 5924 5924 5923 5922 5921 5920 5919 5919 5918 5917 5916 5916 5914 5914 5914 5914 5913 5912 5911 5910 5909 5908 5907 5907 5906 5904 5903 5902 5902 5901 5901 5899 5898 5898 5898 5897 5897 5897 5896 5896 5896 5895 5895
5927 5927 5926 5926 5925 5925 5925 5925 5924 5923 5922 5921 5920 5920 5919 5918 5918 5917 5917 5916 5915 5915 5914 5913 5912 5912 5910 5909 5908 5907 5907 5905 5904 5903 5903 5902 5901 5900 5899 5899 5899 5898 5898 5897 5897 5896 5896 5896 5895
5928 5928 5927 5927 5927 5926 5926 5926 5925 5925 5924 5923 5921 5921 5920 5919 5919 5918 5918 5917 5916 5916 5915 5914 5913 5912 5911 5910 5909 5908 5907 5906 5905 5904 5903 5902 5901 5901 5900 5899 5899 5898 5898 5898 5897 5897 5897 5896 5895
5928 5928 5928 5928 5928 5928 5928 5927 5927 5926 5925 5924 5923 5922 5921 5920 5919 5919 5919 5918 5918 5917 5916 5915 5914 5913 5913 5911 5910 5908 5908 5907 5905 5904 5904 5903 5902 5901 5901 5900 5899 5899 5898 5898 5897 5897 5897 5896 5896
5929 5929 5929 5929 5929 5929 5929 5929 5928 5927 5926 5925 5924 5923 5922 5921 5921 5920 5920 5919 5918 5918 5917 5916 5915 5914 5913 5912 5911 5909 5908 5907 5906 5905 5904 5903 5902 5902 5901 5900 5900 5899 5898 5898 5897 5897 5896 5896 5896
5929 5929 5929 5929 5930 5930 5930 5930 5930 5928 5927 5926 5925 5924 5923 5923 5922 5921 5920 5920 5919 5918 5918 5917 5916 5914 5913 5912 5911 5910 5909 5908 5907 5906 5904 5903 5903 5902 5901 5901 5900 5899 5898 5898 5897 5897 5896 5896 5896
5929 5930 5930 5930 5931 5931 5932 5932 5931 5930 5928 5928 5927 5926 5925 5924 5923 5922 5921 5921 5920 5919 5918 5917 5916 5915 5914 5913 5912 5911 5910 5908 5907 5906 5905 5904 5903 5902 5901 5901 5900 5899 5898 5897 5897 5896 5896 5896 5895
5929 5930 5930 5931 5931 5932 5934 5933 5932 5931 5930 5929 5928 5927 5926 5926 5925 5923 5922 5922 5921 5920 5919 5918 5917 5915 5914 5913 5912 5911 5910 5908 5907 5906 5905 5904 5903 5902 5901 5900 5899 5898 5897 5897 5896 5896 5895 5895 5894
5929 5929 5930 5931 5931 5932 5933 5933 5932 5931 5931 5930 5930 5928 5927 5926 5925 5924 5923 5923 5922 5921 5920 5919 5917 5916 5915 5914 5912 5911 5909 5908 5907 5906 5904 5903 5902 5901 5900 5900 5898 5898 5897 5896 5895 5895 5894 5894 5894
5929 5929 5929 5930 5930 5932 5933 5933 5933 5932 5931 5931 5930 5929 5928 5927 5926 5925 5924 5923 5922 5921 5920 5919 5918 5917 5915 5914 5912 5911 5910 5908 5907 5906 5905 5903 5902 5901 5900 5899 5897 5896 5896 5895 5894 5894 5893 5893 5893
5927 5927 5928 5929 5930 5931 5932 5932 5932 5932 5931 5931 5931 5929 5928 5927 5926 5925 5924 5923 5922 5922 5921 5920 5918 5917 5916 5914 5913 5911 5910 5909 5907 5906 5905 5903 5901 5900 5899 5898 5897 5896 5895 5894 5893 5893 5892 5892 5891
5925 5926 5927 5928 5929 5931 5932 5932 5932 5931 5931 5931 5930 5928 5928 5928 5927 5926 5925 5924 5923 5922 5921 5920 5919 5917 5916 5914 5913 5911 5910 5909 5907 5906 5905 5903 5902 5900 5898 5897 5896 5895 5894 5893 5892 5892 5891 5891 5890
5923 5925 5926 5927 5928 5929 5930 5931 5931 5930 5930 5930 5929 5929 5929 5928 5927 5926 5925 5924 5923 5922 5921 5920 5919 5917 5916 5915 5913 5911 5910 5909 5907 5906 5904 5903 5901 5899 5898 5896 5895 5894 5893 5892 5892 5891 5890 5889 5889
5920 5923 5924 5925 5926 5926 5928 5929 5929 5929 5929 5929 5929 5929 5928 5928 5927 5926 5925 5924 5923 5922 5921 5920 5919 5918 5916 5915 5913 5911 5910 5909 5907 5905 5904 5903 5901 5899 5897 5895 5894 5892 5891 5891 5890 5890 5889 5888 5888
5918 5920 5922 5923 5923 5924 5925 5926 5928 5927 5927 5928 5927 5928 5928 5927 5927 5926 5925 5924 5923 5922 5921 5920 5919 5917 5916 5915 5913 5912 5910 5909 5907 5906 5904 5902 5900 5898 5897 5895 5893 5891 5890 5889 5889 5888 5888 5887 5887
5915 5917 5919 5920 5921 5922 5923 5924 5925 5925 5925 5926 5926 5926 5926 5926 5926 5926 5925 5924 5923 5922 5921 5920 5919 5917 5916 5915 5913 5912 5910 5908 5907 5905 5903 5901 5899 5898 5896 5894 5892 5890 5889 5888 5887 5887 5886 5886 5885
5911 5914 5916 5917 5917 5919 5921 5921 5923 5923 5923 5923 5924 5924 5924 5925 5925 5925 5924 5923 5922 5921 5920 5919 5918 5917 5916 5914 5913 5911 5910 5908 5906 5904 5902 5900 5898 5896 5894 5893 5891 5889 5888 5887 5885 5885 5884 5884 5883
5906 5910 5912 5914 5915 5917 5918 5917 5920 5920 5920 5920 5921 5922 5923 5923 5923 5923 5923 5922 5922 5921 5920 5919 5917 5916 5915 5914 5912 5910 5909 5907 5905 5903 5901 5899 5896 5895 5893 5891 5889 5888 5886 5885 5884 5883 5882 5881 5881
5902 5905 5908 5910 5911 5913 5914 5915 5916 5917 5917 5918 5919 5919 5920 5921 5921 5921 5921 5921 5920 5919 5919 5918 5917 5916 5914 5913 5911 5909 5908 5906 5904 5902 5899 5897 5895 5893 5892 5890 5888 5886 5884 5883 5881 5881 5880 5879 5878
5899 5901 5904 5906 5907 5909 5911 5912 5914 5913 5914 5916 5916 5917 5918 5919 5919 5919 5919 5919 5919 5918 5917 5916 5915 5914 5913 5911 5909 5908 5906 5904 5902 5900 5898 5895 5893 5891 5889 5888 5886 5884 5882 5881 5879 5878 5878 5877 5876
5895 5897 5899 5902 5904 5906 5908 5911 5911 5911 5912 5913 5914 5915 5916 5916 5917 5917 5917 5917 5916 5916 5915 5914 5913 5912 5911 5909 5907 5906 5904 5902 5900 5898 5895 5893 5891 5889 5887 5885 5883 5882 5880 5879 5878 5876 5876 5875 5874
5890 5893 5896 5898 5900 5903 5905 5910 5908 5909 5909 5910 5910 5912 5913 5914 5914 5914 5915 5915 5914 5913 5913 5912 5911 5909 5908 5907 5905 5904 5902 5900 5897 5895 5893 5891 5888 5886 5885 5883 5881 5879 5878 5876 5875 5874 5873 5872 5872